QPF
0.00 0.00 0.00 0.00 0.00 0.00 0.00 0.00 0.00 0.00 0.00 0.00 0.00 0.00 0.00 0.00 0.00 0.00 0.00 0.00 0.00 0.00 0.00 0.00 0.00 0.00 0.00 0.00 0.00 0.00 0.00 0.00 0.00 0.00 0.00 0.00 0.00 0.00 0.00 0.00 0.00 0.00 0.00 0.00
0.00 0.00 0.00 0.00 0.00 0.00 0.00 0.00 0.00 0.00 0.00 0.00 0.00 0.00 0.00 0.00 0.00 0.00 0.00 0.00 0.00 0.00 0.00 0.00 0.00 0.00 0.00 0.00 0.00 0.00 0.00 0.00 0.00 0.00 0.00 0.00 0.00 0.00 0.00 0.00 0.00 0.00 0.00 0.00
0.00 0.00 0.00 0.00 0.00 0.00 0.00 0.00 0.00 0.00 0.00 0.00 0.00 0.00 0.00 0.00 0.00 0.00 0.00 0.00 0.00 0.00 0.00 0.00 0.00 0.00 0.00 0.00 0.00 0.00 0.00 0.00 0.00 0.00 0.00 0.00 0.00 0.00 0.00 0.00 0.00 0.00 0.00 0.00
0.00 0.00 0.00 0.00 0.00 0.00 0.00 0.00 0.00 0.00 0.00 0.00 0.00 0.00 0.00 0.00 0.00 0.00 0.00 0.00 0.00 0.00 0.00 0.00 0.00 0.00 0.00 0.00 0.00 0.00 0.00 0.00 0.00 0.00 0.00 0.00 0.00 0.00 0.00 0.00 0.00 0.00 0.00 0.00
0.00 0.00 0.00 0.00 0.00 0.00 0.00 0.00 0.00 0.00 0.00 0.00 0.00 0.00 0.00 0.00 0.00 0.00 0.00 0.00 0.00 0.00 0.00 0.00 0.00 0.00 0.00 0.00 0.00 0.00 0.00 0.00 0.00 0.00 0.00 0.00 0.00 0.00 0.00 0.00 0.00 0.00 0.00 0.00
0.00 0.00 0.00 0.00 0.00 0.00 0.00 0.00 0.00 0.00 0.00 0.00 0.00 0.00 0.00 0.00 0.00 0.00 0.00 0.00 0.00 0.00 0.00 0.00 0.00 0.00 0.00 0.00 0.00 0.00 0.00 0.00 0.00 0.00 0.00 0.00 0.00 0.00 0.00 0.00 0.00 0.00 0.00 0.00
0.00 0.00 0.00 0.00 0.00 0.00 0.00 0.00 0.00 0.00 0.00 0.00 0.00 0.00 0.00 0.00 0.00 0.00 0.00 0.00 0.00 0.00 0.00 0.00 0.00 0.00 0.00 0.00 0.00 0.00 0.00 0.00 0.00 0.00 0.00 0.00 0.00 0.00 0.00 0.00 0.00 0.00 0.00 0.01
0.00 0.00 0.00 0.00 0.00 0.00 0.00 0.00 0.00 0.00 0.00 0.00 0.00 0.00 0.00 0.00 0.00 0.00 0.00 0.00 0.00 0.00 0.00 0.00 0.00 0.00 0.00 0.00 0.00 0.00 0.00 0.00 0.00 0.00 0.00 0.00 0.00 0.00 0.00 0.00 0.00 0.00 0.00 0.01
0.00 0.00 0.00 0.00 0.00 0.00 0.00 0.00 0.00 0.00 0.00 0.00 0.00 0.00 0.00 0.00 0.00 0.00 0.00 0.00 0.00 0.00 0.00 0.00 0.00 0.00 0.00 0.00 0.00 0.00 0.00 0.00 0.00 0.00 0.00 0.00 0.00 0.00 0.00 0.00 0.00 0.00 0.00 0.00
0.00 0.00 0.00 0.00 0.00 0.00 0.00 0.00 0.00 0.00 0.00 0.00 0.00 0.00 0.00 0.00 0.00 0.00 0.00 0.00 0.00 0.00 0.00 0.00 0.00 0.00 0.00 0.00 0.00 0.00 0.00 0.00 0.00 0.00 0.00 0.00 0.00 0.00 0.00 0.00 0.00 0.00 0.00 0.00
0.00 0.00 0.00 0.00 0.00 0.00 0.00 0.00 0.00 0.00 0.00 0.00 0.00 0.00 0.00 0.00 0.00 0.00 0.00 0.00 0.00 0.00 0.00 0.00 0.00 0.00 0.00 0.00 0.00 0.00 0.00 0.00 0.00 0.00 0.00 0.00 0.00 0.00 0.00 0.00 0.00 0.00 0.00 0.00
0.00 0.00 0.00 0.00 0.00 0.00 0.00 0.00 0.00 0.00 0.00 0.00 0.00 0.00 0.00 0.00 0.00 0.00 0.00 0.00 0.00 0.00 0.00 0.00 0.00 0.00 0.00 0.00 0.00 0.00 0.00 0.00 0.00 0.00 0.00 0.00 0.00 0.00 0.00 0.00 0.00 0.00 0.00 0.00
0.00 0.00 0.00 0.00 0.00 0.00 0.00 0.00 0.00 0.00 0.00 0.00 0.00 0.00 0.00 0.00 0.00 0.00 0.00 0.00 0.00 0.00 0.00 0.00 0.00 0.00 0.00 0.00 0.00 0.00 0.00 0.00 0.00 0.00 0.00 0.00 0.00 0.00 0.00 0.00 0.00 0.00 0.00 0.00
0.00 0.00 0.00 0.00 0.00 0.00 0.00 0.00 0.00 0.00 0.00 0.00 0.00 0.00 0.00 0.00 0.00 0.00 0.00 0.00 0.00 0.00 0.00 0.00 0.00 0.00 0.00 0.00 0.00 0.00 0.00 0.00 0.00 0.00 0.00 0.00 0.00 0.00 0.00 0.00 0.00 0.00 0.00 0.00
0.00 0.00 0.00 0.00 0.00 0.00 0.00 0.00 0.00 0.00 0.00 0.00 0.00 0.00 0.00 0.00 0.00 0.00 0.00 0.00 0.00 0.00 0.00 0.00 0.00 0.00 0.00 0.00 0.00 0.00 0.00 0.00 0.00 0.00 0.00 0.00 0.00 0.00 0.00 0.00 0.00 0.00 0.00 0.00
0.00 0.00 0.00 0.00 0.00 0.00 0.00 0.00 0.00 0.00 0.00 0.00 0.00 0.00 0.00 0.00 0.00 0.00 0.00 0.00 0.00 0.00 0.00 0.00 0.00 0.00 0.00 0.00 0.00 0.00 0.00 0.00 0.00 0.00 0.00 0.00 0.00 0.00 0.00 0.00 0.00 0.00 0.00 0.00
0.00 0.00 0.00 0.00 0.00 0.00 0.00 0.00 0.00 0.00 0.00 0.00 0.00 0.00 0.00 0.00 0.00 0.00 0.00 0.00 0.00 0.00 0.00 0.00 0.00 0.00 0.00 0.00 0.00 0.00 0.00 0.00 0.00 0.00 0.00 0.00 0.00 0.00 0.00 0.00 0.00 0.00 0.00 0.00
0.00 0.00 0.00 0.00 0.00 0.00 0.00 0.00 0.00 0.00 0.00 0.00 0.00 0.00 0.00 0.00 0.00 0.00 0.00 0.00 0.00 0.00 0.00 0.00 0.00 0.00 0.00 0.00 0.00 0.00 0.00 0.00 0.00 0.00 0.00 0.00 0.00 0.00 0.00 0.00 0.00 0.00 0.00 0.00
0.00 0.00 0.00 0.00 0.00 0.00 0.00 0.00 0.00 0.00 0.00 0.00 0.00 0.00 0.00 0.00 0.00 0.00 0.00 0.00 0.00 0.00 0.00 0.00 0.00 0.00 0.00 0.00 0.00 0.00 0.00 0.00 0.00 0.00 0.00 0.00 0.00 0.00 0.00 0.00 0.00 0.00 0.00 0.00
0.00 0.00 0.00 0.00 0.00 0.00 0.00 0.00 0.00 0.00 0.00 0.00 0.00 0.00 0.00 0.00 0.00 0.00 0.00 0.00 0.00 0.00 0.00 0.00 0.00 0.00 0.00 0.00 0.00 0.00 0.00 0.00 0.00 0.00 0.00 0.00 0.00 0.00 0.00 0.00 0.00 0.00 0.00 0.00
0.00 0.00 0.00 0.00 0.00 0.00 0.00 0.00 0.00 0.00 0.00 0.00 0.00 0.00 0.00 0.00 0.00 0.00 0.00 0.00 0.00 0.00 0.00 0.00 0.00 0.00 0.00 0.00 0.00 0.00 0.00 0.00 0.00 0.00 0.00 0.00 0.00 0.00 0.00 0.00 0.00 0.00 0.00 0.00
0.00 0.00 0.00 0.00 0.00 0.00 0.00 0.00 0.00 0.00 0.00 0.00 0.00 0.00 0.00 0.00 0.00 0.00 0.00 0.00 0.00 0.00 0.00 0.00 0.00 0.00 0.00 0.00 0.00 0.00 0.00 0.00 0.00 0.00 0.00 0.00 0.00 0.00 0.00 0.00 0.00 0.00 0.00 0.00
0.00 0.00 0.00 0.00 0.00 0.00 0.00 0.00 0.00 0.00 0.00 0.00 0.00 0.00 0.00 0.00 0.00 0.00 0.00 0.00 0.00 0.00 0.00 0.00 0.00 0.00 0.00 0.00 0.00 0.00 0.00 0.00 0.00 0.00 0.00 0.00 0.00 0.00 0.00 0.00 0.00 0.00 0.00 0.00
0.00 0.00 0.00 0.00 0.00 0.00 0.00 0.00 0.00 0.00 0.00 0.00 0.00 0.00 0.00 0.00 0.00 0.00 0.00 0.00 0.00 0.00 0.00 0.00 0.00 0.00 0.00 0.00 0.00 0.00 0.00 0.00 0.00 0.00 0.00 0.00 0.00 0.00 0.00 0.00 0.00 0.00 0.00 0.00
0.00 0.00 0.01 0.00 0.00 0.00 0.00 0.00 0.00 0.00 0.00 0.00 0.00 0.00 0.00 0.00 0.00 0.00 0.00 0.00 0.00 0.00 0.00 0.00 0.00 0.00 0.00 0.00 0.00 0.00 0.00 0.00 0.00 0.00 0.00 0.00 0.00 0.00 0.00 0.00 0.00 0.00 0.00 0.00
0.00 0.01 0.01 0.00 0.00 0.00 0.00 0.00 0.00 0.00 0.00 0.00 0.00 0.00 0.00 0.00 0.00 0.00 0.00 0.00 0.00 0.00 0.00 0.00 0.00 0.00 0.00 0.00 0.00 0.00 0.00 0.00 0.00 0.00 0.00 0.00 0.00 0.00 0.00 0.00 0.00 0.00 0.00 0.00
MSLP
1007.38 1007.29 1004.56 1004.42 1004.95 1005.66 1005.18 1004.95 1004.51 1004.63 1004.93 1004.77 1003.91 1003.49 1003.16 1002.72 1002.81 1002.40 1001.58 1001.03 1000.75 1000.38 1000.45 1001.19 1001.69 1002.51 1002.89 1003.38 1003.89 1004.68 1005.60 1006.94 1007.42 1007.98 1008.50 1008.90 1009.12 1009.34 1009.49 1009.58 1009.49 1009.52 1009.63 1009.67
1006.68 1003.94 1001.71 1004.27 1005.15 1005.42 1005.27 1004.70 1004.13 1004.43 1004.55 1004.73 1003.79 1002.96 1003.04 1002.46 1002.15 1001.55 1000.88 1000.39 1000.02 1000.05 1000.54 1001.48 1002.20 1002.86 1003.36 1003.76 1004.41 1005.16 1005.82 1006.63 1007.19 1007.74 1008.34 1008.66 1008.92 1009.12 1009.26 1009.30 1009.20 1009.18 1009.23 1009.29
1002.23 998.80 1003.32 1003.87 1003.85 1004.43 1004.27 1003.86 1004.18 1004.10 1004.38 1004.40 1003.95 1002.50 1002.61 1001.51 1001.50 1000.48 999.95 999.92 999.68 999.97 1000.35 1001.51 1002.16 1002.99 1003.61 1004.07 1004.74 1005.31 1005.95 1006.54 1007.10 1007.86 1008.34 1008.75 1009.09 1009.11 1008.99 1008.89 1008.93 1009.00 1009.06 1009.04
1002.59 1001.49 1002.04 1002.85 1002.86 1003.76 1003.28 1004.33 1004.58 1004.89 1005.02 1003.87 1004.21 1001.94 1002.02 1001.11 1000.29 999.45 998.98 999.09 999.13 999.63 1000.67 1001.43 1002.20 1003.08 1003.72 1004.28 1004.94 1005.56 1006.03 1006.59 1007.25 1007.84 1008.08 1008.45 1008.54 1008.51 1008.69 1008.78 1008.82 1008.84 1008.85 1008.80
1000.60 1001.01 1001.43 1001.62 1001.01 1002.54 1002.18 1004.02 1004.35 1004.83 1005.02 1004.90 1004.19 1003.29 1001.21 1001.00 999.43 998.41 998.04 998.49 999.16 999.93 1000.54 1001.43 1002.20 1002.90 1003.73 1004.54 1005.12 1005.68 1006.21 1006.70 1007.33 1007.69 1007.99 1008.27 1008.45 1008.54 1008.62 1008.74 1008.72 1008.70 1008.66 1008.76
1001.29 1000.84 1000.61 999.43 1001.31 1002.03 1003.03 1003.55 1004.06 1004.39 1004.53 1003.57 1003.13 1003.15 999.69 999.44 998.35 997.55 997.16 997.86 998.82 999.89 1000.75 1001.77 1002.52 1003.03 1003.86 1004.66 1005.28 1005.76 1006.28 1006.81 1007.34 1007.67 1008.05 1008.13 1008.27 1008.40 1008.43 1008.47 1008.42 1008.42 1008.61 1008.70
1001.24 1000.44 999.65 999.87 1000.57 1001.59 1002.25 1002.89 1003.29 1003.68 1003.42 1001.57 1002.24 1001.96 998.77 998.19 997.65 997.36 997.16 997.64 998.88 1000.00 1000.89 1001.86 1002.70 1003.03 1003.94 1004.64 1005.23 1005.76 1006.31 1006.87 1007.26 1007.61 1007.80 1008.02 1008.21 1008.33 1008.34 1008.36 1008.22 1008.30 1008.42 1008.51
1000.66 999.97 998.98 998.57 998.69 999.45 1000.20 1000.65 1000.83 1001.18 1001.31 1000.99 1001.09 1000.07 997.79 997.22 996.10 996.48 996.79 997.59 998.91 1000.08 1000.93 1001.80 1002.60 1003.32 1003.86 1004.57 1005.14 1005.61 1006.23 1006.73 1007.20 1007.46 1007.66 1007.95 1008.13 1008.20 1008.16 1008.15 1008.18 1008.26 1008.21 1008.27
1000.66 998.66 997.72 997.94 998.13 998.87 999.39 999.75 1000.31 1000.53 1001.08 1000.37 999.07 999.04 997.54 996.34 995.80 995.94 996.26 997.45 998.68 999.98 1000.81 1001.75 1002.63 1003.35 1003.87 1004.50 1005.04 1005.52 1006.17 1006.59 1006.98 1007.31 1007.53 1007.80 1007.98 1008.16 1008.11 1008.17 1008.34 1008.20 1008.33 1008.47
1002.15 999.53 997.84 997.80 997.87 997.92 997.70 999.24 1000.25 1000.00 999.53 999.25 998.22 997.82 996.10 995.27 995.18 995.30 996.03 997.17 998.63 1000.00 1000.92 1001.77 1002.58 1003.28 1003.93 1004.38 1005.03 1005.69 1006.11 1006.44 1006.87 1007.17 1007.42 1007.59 1007.81 1008.03 1008.05 1008.11 1008.17 1008.19 1008.27 1008.37
1003.70 1001.27 998.10 997.37 996.16 996.07 997.65 998.13 998.52 998.88 998.83 998.05 997.40 996.19 995.21 994.48 994.64 994.98 995.65 996.78 998.30 999.67 1000.61 1001.47 1002.35 1003.21 1003.83 1004.28 1004.96 1005.63 1006.07 1006.47 1006.81 1007.13 1007.47 1007.60 1007.71 1007.96 1008.01 1008.05 1008.13 1008.18 1008.20 1008.42
1004.86 1002.73 999.24 996.59 996.35 996.38 996.79 996.89 997.35 997.21 998.15 997.82 997.18 995.67 994.91 994.73 994.99 995.38 995.89 997.08 998.40 999.53 1000.26 1001.32 1002.15 1002.97 1003.64 1004.21 1004.82 1005.37 1005.97 1006.30 1006.67 1007.09 1007.43 1007.53 1007.73 1007.90 1007.96 1008.05 1008.15 1008.11 1008.16 1008.44
1006.54 1003.46 1000.17 998.32 997.76 996.78 996.18 996.57 997.31 997.61 997.56 997.11 996.59 995.38 994.79 994.84 994.89 995.32 995.70 997.14 998.64 999.40 1000.33 1001.25 1002.08 1002.74 1003.39 1003.99 1004.60 1005.10 1005.75 1006.14 1006.61 1007.07 1007.34 1007.54 1007.71 1007.78 1007.95 1008.10 1008.18 1008.18 1008.37 1008.65
1007.02 1004.73 1001.70 998.91 997.83 997.13 996.65 996.73 997.00 997.15 996.71 996.47 995.88 995.45 994.33 994.39 994.56 995.25 996.07 997.04 998.28 999.32 1000.13 1000.98 1001.81 1002.38 1003.12 1003.68 1004.34 1004.90 1005.51 1006.08 1006.60 1007.01 1007.26 1007.48 1007.64 1007.76 1007.96 1008.16 1008.29 1008.26 1008.44 1008.76
1007.25 1005.16 1003.21 1001.10 999.93 998.99 997.67 996.47 996.49 996.33 996.55 996.15 995.95 995.30 993.83 994.08 994.42 995.08 996.22 997.12 998.13 999.05 999.77 1000.50 1001.24 1002.03 1002.77 1003.41 1004.12 1004.68 1005.31 1005.99 1006.55 1006.91 1007.19 1007.49 1007.66 1007.84 1008.01 1008.18 1008.45 1008.54 1008.55 1008.82
1006.53 1005.31 1003.72 1001.23 1000.19 999.27 998.08 997.10 996.31 996.25 996.25 996.13 995.85 994.66 994.46 994.48 994.84 994.99 995.79 996.80 997.45 998.20 999.00 1000.01 1000.83 1001.66 1002.29 1002.95 1003.64 1004.40 1005.13 1005.83 1006.41 1006.79 1007.09 1007.50 1007.70 1007.83 1008.06 1008.29 1008.52 1008.64 1008.87 1009.35
1006.29 1005.38 1003.92 1001.22 1000.55 999.29 997.64 996.43 996.40 996.32 996.24 996.22 995.41 994.58 994.53 994.21 994.05 994.34 995.11 996.15 996.26 997.09 998.07 999.07 1000.01 1000.93 1001.76 1002.47 1003.26 1004.04 1004.84 1005.66 1006.22 1006.62 1007.07 1007.46 1007.72 1007.90 1008.10 1008.33 1008.61 1008.85 1009.14 1009.37
1006.04 1005.33 1004.22 1002.20 1000.75 998.93 996.99 996.68 996.06 996.57 996.58 996.49 995.91 995.41 994.63 993.98 993.42 993.67 994.34 994.95 995.58 996.34 997.36 998.49 999.48 1000.42 1001.37 1002.13 1003.03 1003.82 1004.64 1005.38 1005.93 1006.41 1006.87 1007.30 1007.59 1007.90 1008.21 1008.34 1008.75 1009.17 1009.46 1009.57
1005.88 1005.38 1004.07 1002.62 1000.92 999.27 998.00 998.64 998.46 997.48 997.71 998.53 997.30 996.39 995.53 994.81 994.45 993.20 993.78 994.13 994.82 994.87 995.93 997.13 998.43 999.71 1000.87 1001.75 1002.71 1003.61 1004.35 1004.99 1005.61 1006.06 1006.56 1006.98 1007.37 1007.82 1008.25 1008.47 1008.82 1009.17 1009.37 1009.62
1005.56 1005.52 1004.89 1003.36 1001.62 999.63 1000.22 999.84 999.78 999.50 999.21 999.89 999.57 998.64 997.80 996.90 995.31 993.19 993.20 993.67 994.44 995.31 995.93 996.80 998.10 999.44 1000.49 1001.41 1002.41 1003.19 1003.88 1004.54 1005.12 1005.63 1006.19 1006.73 1007.14 1007.58 1008.04 1008.55 1008.90 1009.28 1009.44 1009.63
1005.67 1005.91 1005.07 1003.85 1002.50 1001.30 1001.12 1000.08 999.68 999.99 1000.96 1000.66 1000.39 999.79 998.94 997.88 995.35 994.83 994.85 993.91 993.85 994.63 995.38 996.58 997.66 998.64 999.76 1000.90 1001.95 1002.59 1003.38 1003.92 1004.58 1005.33 1006.01 1006.62 1007.09 1007.50 1007.96 1008.60 1008.99 1009.19 1009.42 1009.81
1005.22 1005.12 1004.82 1004.26 1003.03 1002.13 1001.95 1000.66 1000.79 1001.73 1001.44 1001.17 1000.69 1000.14 999.30 998.46 997.07 996.08 995.58 994.90 994.77 994.12 995.11 996.18 997.15 998.19 999.39 1000.46 1001.24 1001.92 1002.68 1003.35 1004.17 1004.98 1005.76 1006.40 1006.96 1007.35 1008.02 1008.48 1008.91 1009.25 1009.51 1009.87
1005.72 1005.36 1004.79 1004.03 1002.77 1002.84 1002.83 1002.62 1002.38 1002.09 1001.62 1001.21 1000.82 1000.08 999.23 998.18 996.88 996.22 995.39 995.18 994.55 994.69 994.27 995.23 996.24 997.61 998.88 999.85 1000.38 1001.06 1001.85 1002.98 1003.84 1004.62 1005.31 1006.17 1006.86 1007.33 1007.88 1008.33 1008.76 1009.15 1009.53 1009.69
1006.01 1005.86 1005.00 1004.34 1003.60 1003.14 1003.08 1002.89 1002.72 1002.31 1001.61 1001.04 1000.52 999.75 998.87 997.80 996.74 995.90 995.06 994.64 994.10 994.14 994.59 994.78 995.88 996.99 998.08 999.08 999.72 1000.08 1001.34 1002.43 1003.33 1004.17 1004.98 1005.80 1006.52 1007.20 1007.74 1008.12 1008.60 1008.83 1009.18 1009.38
1006.95 1006.25 1005.44 1004.78 1003.89 1003.26 1002.95 1002.82 1002.50 1002.02 1001.28 1000.53 999.88 999.28 998.42 997.41 996.21 995.56 994.75 994.16 993.53 993.56 994.28 994.33 994.93 995.78 996.81 998.14 998.95 999.86 1000.80 1001.81 1002.75 1003.65 1004.55 1005.41 1006.04 1006.83 1007.40 1007.78 1008.29 1008.58 1008.92 1009.08
1006.81 1006.12 1005.47 1004.65 1004.34 1004.32 1003.72 1003.11 1002.66 1002.04 1001.17 1000.34 999.39 998.27 997.69 997.07 995.94 995.17 994.24 993.43 992.96 992.87 993.35 994.31 994.53 995.41 996.44 997.40 998.30 999.17 1000.10 1001.03 1001.98 1003.03 1003.94 1004.66 1005.29 1006.18 1006.73 1007.37 1008.37 1009.00 1009.13 1009.49
Thickness
5649 5642 5666 5680 5680 5678 5685 5681 5685 5693 5703 5700 5709 5708 5718 5734 5730 5731 5742 5752 5757 5765 5774 5768 5766 5761 5757 5751 5744 5736 5724 5710 5702 5693 5683 5675 5668 5663 5656 5651 5646 5642 5637 5632
5632 5653 5703 5689 5673 5665 5668 5670 5677 5689 5698 5693 5702 5702 5711 5722 5726 5735 5744 5753 5761 5766 5767 5759 5754 5752 5748 5741 5734 5725 5717 5706 5698 5690 5681 5673 5666 5659 5653 5648 5644 5640 5634 5629
5659 5709 5685 5672 5671 5659 5663 5666 5673 5679 5687 5688 5684 5690 5696 5725 5727 5741 5751 5756 5763 5763 5764 5753 5751 5746 5738 5732 5725 5718 5710 5701 5694 5684 5676 5667 5659 5654 5650 5646 5642 5636 5630 5625
5645 5682 5667 5659 5660 5660 5654 5668 5666 5664 5657 5662 5677 5662 5685 5715 5723 5739 5751 5756 5763 5764 5755 5751 5747 5737 5732 5725 5719 5711 5704 5696 5688 5680 5672 5663 5657 5652 5648 5643 5638 5633 5627 5623
5653 5655 5652 5654 5675 5672 5670 5663 5658 5655 5643 5647 5662 5649 5691 5705 5717 5739 5753 5757 5758 5755 5752 5747 5742 5735 5728 5719 5712 5705 5698 5691 5683 5676 5668 5660 5653 5649 5645 5639 5634 5628 5625 5620
5638 5656 5660 5682 5670 5670 5666 5654 5650 5651 5651 5633 5664 5653 5697 5712 5726 5740 5757 5760 5753 5748 5745 5741 5736 5732 5721 5714 5706 5700 5693 5685 5678 5671 5663 5658 5651 5647 5642 5636 5631 5626 5621 5617
5618 5634 5659 5664 5655 5659 5653 5640 5621 5619 5625 5647 5670 5661 5705 5726 5736 5741 5750 5757 5749 5743 5741 5735 5728 5724 5714 5707 5701 5695 5688 5680 5674 5666 5661 5655 5650 5644 5639 5634 5631 5625 5620 5618
5602 5611 5644 5665 5663 5661 5660 5659 5646 5624 5633 5653 5677 5660 5706 5735 5749 5753 5755 5755 5747 5739 5738 5733 5726 5717 5712 5704 5698 5693 5686 5678 5670 5665 5659 5654 5649 5644 5639 5635 5629 5623 5622 5621
5598 5623 5657 5663 5671 5668 5658 5643 5670 5658 5647 5657 5684 5682 5718 5738 5741 5746 5753 5750 5744 5737 5735 5729 5720 5713 5708 5701 5695 5691 5683 5676 5669 5664 5658 5653 5648 5643 5639 5634 5628 5625 5622 5620
5577 5604 5643 5650 5661 5668 5668 5673 5639 5651 5642 5639 5673 5677 5709 5733 5739 5748 5751 5747 5739 5733 5731 5723 5716 5710 5704 5700 5694 5688 5682 5675 5668 5663 5658 5654 5649 5644 5639 5635 5630 5627 5625 5623
5560 5585 5624 5641 5652 5659 5652 5650 5653 5662 5660 5658 5663 5690 5732 5741 5743 5750 5756 5750 5740 5735 5730 5722 5716 5708 5703 5699 5692 5685 5679 5672 5668 5662 5656 5653 5648 5643 5639 5637 5633 5630 5628 5625
5540 5563 5603 5641 5658 5670 5667 5668 5670 5665 5648 5670 5673 5694 5732 5735 5738 5745 5749 5742 5739 5736 5730 5722 5714 5707 5701 5695 5689 5684 5678 5673 5669 5662 5656 5653 5647 5643 5639 5637 5634 5633 5630 5628
5512 5556 5594 5611 5628 5653 5657 5665 5664 5662 5665 5660 5669 5692 5730 5730 5738 5744 5749 5740 5734 5733 5725 5719 5711 5705 5700 5694 5689 5684 5678 5674 5668 5661 5656 5652 5647 5643 5640 5639 5636 5635 5632 5629
5501 5536 5574 5617 5632 5645 5646 5651 5658 5658 5659 5666 5679 5698 5725 5731 5738 5743 5741 5740 5736 5730 5722 5717 5710 5707 5701 5696 5690 5684 5679 5673 5667 5661 5658 5652 5648 5645 5643 5641 5638 5637 5634 5631
5492 5528 5554 5581 5596 5611 5628 5651 5656 5655 5663 5663 5681 5693 5722 5730 5738 5738 5737 5736 5732 5728 5723 5717 5712 5708 5702 5696 5690 5685 5680 5673 5667 5662 5658 5653 5651 5648 5646 5643 5640 5638 5636 5633
5504 5523 5546 5586 5599 5610 5618 5637 5655 5660 5665 5675 5684 5697 5720 5727 5730 5736 5735 5733 5733 5732 5727 5719 5715 5710 5704 5699 5693 5686 5681 5674 5668 5664 5659 5655 5653 5650 5646 5644 5641 5639 5636 5631
5505 5516 5540 5585 5587 5605 5618 5644 5648 5657 5671 5677 5677 5703 5718 5721 5731 5739 5739 5736 5742 5739 5732 5726 5721 5715 5709 5703 5697 5688 5683 5677 5670 5666 5661 5657 5654 5650 5648 5646 5642 5639 5635 5633
5503 5515 5531 5561 5581 5592 5638 5647 5662 5660 5673 5686 5693 5699 5715 5728 5742 5746 5748 5745 5746 5745 5736 5730 5725 5720 5713 5707 5699 5693 5686 5679 5674 5669 5665 5660 5658 5654 5650 5648 5644 5639 5636 5633
5504 5512 5530 5552 5576 5609 5627 5618 5622 5653 5661 5652 5677 5695 5707 5721 5727 5743 5750 5751 5752 5757 5749 5742 5736 5727 5717 5709 5702 5694 5688 5683 5677 5673 5669 5665 5663 5658 5654 5650 5646 5643 5641 5637
5506 5510 5521 5544 5566 5602 5588 5607 5618 5633 5650 5641 5652 5664 5675 5691 5703 5740 5759 5755 5753 5752 5748 5745 5738 5729 5719 5712 5705 5697 5691 5686 5681 5678 5674 5671 5668 5664 5660 5654 5650 5647 5645 5642
5494 5489 5510 5539 5558 5579 5584 5605 5621 5632 5635 5634 5646 5657 5669 5684 5726 5731 5733 5750 5758 5755 5751 5746 5739 5732 5724 5717 5709 5702 5696 5691 5689 5684 5679 5674 5671 5667 5664 5658 5654 5652 5649 5645
5505 5512 5518 5531 5550 5573 5578 5601 5606 5605 5621 5632 5645 5656 5669 5683 5700 5714 5725 5734 5742 5755 5750 5747 5740 5734 5727 5719 5714 5708 5701 5699 5694 5688 5682 5677 5673 5671 5665 5661 5658 5655 5653 5649
5506 5508 5519 5538 5559 5561 5567 5576 5590 5607 5618 5631 5642 5658 5671 5685 5702 5713 5725 5729 5740 5745 5755 5752 5746 5736 5728 5723 5721 5714 5710 5703 5697 5691 5686 5680 5676 5673 5669 5665 5662 5659 5656 5655
5497 5500 5519 5530 5543 5553 5561 5573 5583 5600 5617 5630 5644 5659 5673 5686 5703 5715 5726 5733 5743 5746 5747 5752 5746 5738 5731 5727 5725 5724 5715 5708 5701 5694 5689 5684 5679 5674 5671 5670 5668 5667 5663 5662
5476 5492 5507 5520 5539 5550 5560 5570 5583 5597 5618 5632 5647 5660 5673 5688 5704 5715 5725 5734 5746 5747 5747 5752 5750 5746 5740 5732 5729 5725 5719 5712 5704 5698 5692 5687 5684 5678 5675 5674 5673 5672 5671 5671
5481 5501 5512 5524 5532 5536 5547 5566 5578 5592 5611 5629 5645 5663 5677 5688 5702 5715 5726 5739 5748 5750 5751 5746 5749 5746 5741 5735 5731 5727 5723 5717 5710 5701 5696 5693 5690 5684 5682 5678 5673 5664 5669 5667